User: anonymous   Login
Location: Newark
(48.2308°N, 120.8549°W)
Time: 18:54:21
(UTC+00:00)
Language:

Explorer 11/Cluster Stage 4 - Orbit

View from above orbital plane
View from above orbital plane
View from above satellite
View from above satellite

Ground track
Ground track

The orbit data is extracted from the following two-line orbital elements,

1   107U 61013A   20158.39920430 +.00000295 +00000-0 +20467-4 0  9994
2   107 028.7879 243.8896 0546779 357.8281 001.9956 14.08966898964663
Epoch (UTC): 06 June 2020 09:34:51
Eccentricity: 0.0546779
inclination: 28.7879°
perigee height: 467 km
apogee height: 1259 km
right ascension of ascending node: 243.8896°
argument of perigee: 357.8281°
revolutions per day: 14.08966898
mean anomaly at epoch: 1.9956°
orbit number at epoch: 96466

The dashed part of the orbit path shows where the satellite is in the earth's shadow,  

DLR